Weather reports worldwide

Advertisment
St. James's Park, United Kingdom (3770): temperature & dewpoint: 19.03.2019 06:00:00 - 25.03.2019 06:00:00 (GMT)St. James's Park, United Kingdom (3770): temperature -20cm & temperature -100cm: 19.03.2019 06:00:00 - 25.03.2019 06:00:00 (GMT)St. James's Park, United Kingdom (3770): precipitation: 19.03.2019 06:00:00 - 25.03.2019 06:00:00 (GMT)
Date & Time tt [°C] td [°C] tt -20cm [°C] tt -100cm [°C] rr [mm]
25.03.2019 06:00:00 6,4 1,6 - - 0,0
25.03.2019 05:00:00 6,8 2,2 - - 0,0
25.03.2019 04:00:00 7,2 3,9 - - 0,0
25.03.2019 03:00:00 8,3 3,5 - - 0,0
25.03.2019 02:00:00 8,2 3,0 - - 0,0
25.03.2019 01:00:00 7,7 2,5 - - 0,0
25.03.2019 00:00:00 7,6 2,2 - - 0,0
24.03.2019 23:00:00 8,3 1,9 - - 0,0
24.03.2019 22:00:00 8,5 1,3 - - 0,0
24.03.2019 21:00:00 9,7 0,6 - - 0,0
24.03.2019 20:00:00 10,7 -0,3 - - 0,0
24.03.2019 19:00:00 11,2 -0,1 - - 0,0
24.03.2019 18:00:00 11,7 0,1 - - 0,0
24.03.2019 17:00:00 13,1 -0,4 - - 0,0
24.03.2019 16:00:00 14,3 1,5 - - 0,0
24.03.2019 15:00:00 14,7 1,5 - - 0,0
24.03.2019 14:00:00 14,6 0,9 - - 0,0
24.03.2019 13:00:00 14,3 2,5 - - 0,0
24.03.2019 12:00:00 13,2 2,5 - - 0,0
24.03.2019 11:00:00 11,6 1,7 - - 0,0
24.03.2019 10:00:00 10,2 1,4 - - 0,0
24.03.2019 09:00:00 9,0 2,8 9,7 9,5 0,0
24.03.2019 08:00:00 5,8 4,5 - - 0,0
24.03.2019 07:00:00 4,6 3,4 - - 0,0
24.03.2019 06:00:00 4,7 3,4 - - 0,0
24.03.2019 05:00:00 5,3 3,4 - - 0,0
24.03.2019 04:00:00 4,7 3,5 - - 0,0
24.03.2019 03:00:00 4,9 3,1 - - 0,0
24.03.2019 02:00:00 5,3 3,0 - - 0,0
24.03.2019 01:00:00 6,8 3,4 - - 0,0
24.03.2019 00:00:00 6,1 2,9 - - 0,0
23.03.2019 23:00:00 7,0 3,0 - - 0,0
23.03.2019 22:00:00 7,6 2,9 - - 0,0
23.03.2019 21:00:00 7,8 2,7 - - 0,0
23.03.2019 20:00:00 8,8 3,0 - - 0,0
23.03.2019 19:00:00 9,7 4,4 - - 0,0
23.03.2019 18:00:00 10,9 5,4 - - 0,0
23.03.2019 17:00:00 12,1 5,0 - - 0,0
23.03.2019 16:00:00 13,2 4,4 - - 0,0
23.03.2019 15:00:00 13,0 3,4 - - 0,0
23.03.2019 14:00:00 13,5 3,1 - - 0,0
23.03.2019 13:00:00 12,6 3,7 - - 0,0
23.03.2019 12:00:00 12,2 3,7 - - 0,0
23.03.2019 11:00:00 11,1 2,1 - - 0,0
23.03.2019 10:00:00 10,9 3,3 - - 0,0
23.03.2019 09:00:00 10,7 4,2 9,9 9,4 0,0
23.03.2019 08:00:00 10,3 6,4 - - 0,0
23.03.2019 07:00:00 10,2 6,6 - - 0,0
23.03.2019 06:00:00 9,8 7,3 - - 0,0
23.03.2019 05:00:00 9,6 7,3 - - 0,0
23.03.2019 04:00:00 9,5 7,2 - - 0,0
23.03.2019 03:00:00 9,5 7,3 - - 0,0
23.03.2019 02:00:00 9,3 7,4 - - 0,0
23.03.2019 01:00:00 8,6 7,0 - - 0,0
23.03.2019 00:00:00 8,8 6,6 - - 0,0
22.03.2019 23:00:00 9,8 6,5 - - 0,0
22.03.2019 22:00:00 10,6 6,7 - - 0,0
22.03.2019 21:00:00 10,7 6,7 - - 0,0
22.03.2019 20:00:00 10,8 6,7 - - 0,0
22.03.2019 19:00:00 10,8 6,9 - - 0,0
22.03.2019 18:00:00 10,6 6,9 - - 0,0
22.03.2019 17:00:00 10,6 6,9 - - 0,0
22.03.2019 16:00:00 10,4 6,9 - - 0,0
22.03.2019 15:00:00 10,4 6,6 - - 0,0
22.03.2019 14:00:00 10,2 6,9 - - 0,0
22.03.2019 13:00:00 10,3 7,0 - - 0,0
22.03.2019 12:00:00 9,8 7,0 - - 0,0
22.03.2019 11:00:00 9,6 6,8 - - 0,0
22.03.2019 10:00:00 9,4 6,4 - - 0,0
22.03.2019 09:00:00 9,3 6,6 10,0 9,2 0,0
22.03.2019 08:00:00 9,4 6,4 - - 0,0
22.03.2019 07:00:00 9,2 6,6 - - 0,0
22.03.2019 06:00:00 9,0 6,1 - - 0,0
22.03.2019 05:00:00 9,5 6,5 - - 0,0
22.03.2019 04:00:00 9,9 6,3 - - 0,0
22.03.2019 03:00:00 10,7 6,8 - - 0,0
22.03.2019 02:00:00 11,4 7,2 - - 0,0
22.03.2019 01:00:00 11,8 7,6 - - 0,0
22.03.2019 00:00:00 11,5 8,0 - - 0,0
21.03.2019 23:00:00 11,9 7,6 - - 0,0
21.03.2019 22:00:00 12,7 8,0 - - 0,0
21.03.2019 21:00:00 12,6 9,0 - - 0,0
21.03.2019 20:00:00 13,0 8,9 - - 0,0
21.03.2019 19:00:00 13,1 8,9 - - 0,0
21.03.2019 18:00:00 13,7 9,0 - - 0,0
21.03.2019 17:00:00 13,9 9,0 - - 0,0
21.03.2019 16:00:00 14,2 9,1 - - 0,0
21.03.2019 15:00:00 14,3 9,3 - - 0,0
21.03.2019 14:00:00 14,3 8,9 - - 0,0
21.03.2019 13:00:00 13,8 8,9 - - 0,0
21.03.2019 12:00:00 12,9 8,6 - - 0,0
21.03.2019 11:00:00 12,7 8,8 - - 0,0
21.03.2019 10:00:00 12,3 8,8 - - 0,0
21.03.2019 09:00:00 11,2 8,4 9,5 9,2 0,0
21.03.2019 08:00:00 10,0 8,4 - - 0,0
21.03.2019 07:00:00 9,7 8,1 - - 0,0
21.03.2019 06:00:00 9,6 7,5 - - 0,0
21.03.2019 05:00:00 9,7 7,4 - - 0,0
21.03.2019 04:00:00 9,8 7,5 - - 0,0
21.03.2019 03:00:00 9,8 7,4 - - 0,0
21.03.2019 02:00:00 9,7 7,3 - - 0,0
21.03.2019 01:00:00 10,0 7,4 - - 0,0
21.03.2019 00:00:00 10,3 7,5 - - 0,0
20.03.2019 23:00:00 10,8 7,3 - - 0,0
20.03.2019 22:00:00 11,3 7,7 - - 0,0
20.03.2019 21:00:00 11,9 7,7 - - 0,0
20.03.2019 20:00:00 12,1 7,9 - - 0,0
20.03.2019 19:00:00 12,4 8,0 - - 0,0
20.03.2019 18:00:00 12,7 8,2 - - 0,0
20.03.2019 17:00:00 12,9 8,5 - - 0,0
20.03.2019 16:00:00 12,8 8,4 - - 0,0
20.03.2019 15:00:00 12,7 7,9 - - 0,0
20.03.2019 14:00:00 12,4 8,4 - - 0,0
20.03.2019 13:00:00 12,1 8,3 - - 0,0
20.03.2019 12:00:00 11,4 8,2 - - 0,0
20.03.2019 11:00:00 11,1 8,0 - - 0,0
20.03.2019 10:00:00 10,6 7,9 - - 0,0
20.03.2019 09:00:00 10,0 7,7 9,2 9,0 0,0
20.03.2019 08:00:00 10,0 7,7 - - 0,0
20.03.2019 07:00:00 9,8 7,5 - - 0,0
20.03.2019 06:00:00 9,8 7,6 - - 0,0
20.03.2019 05:00:00 9,6 7,5 - - 0,0
20.03.2019 04:00:00 9,8 7,4 - - 0,0
20.03.2019 03:00:00 10,0 7,4 - - 0,0
20.03.2019 02:00:00 10,1 7,5 - - 0,0
20.03.2019 01:00:00 10,4 7,6 - - 0,0
20.03.2019 00:00:00 10,3 7,9 - - 0,0
19.03.2019 23:00:00 10,2 8,1 - - 0,0
19.03.2019 22:00:00 10,2 8,2 - - 0,0
19.03.2019 21:00:00 9,7 7,7 - - 0,0
19.03.2019 20:00:00 10,5 7,9 - - 0,0
19.03.2019 19:00:00 10,7 7,7 - - 0,0
19.03.2019 18:00:00 10,9 8,2 - - 0,0
19.03.2019 17:00:00 11,4 7,9 - - 0,0
19.03.2019 16:00:00 12,6 6,8 - - 0,0
19.03.2019 15:00:00 12,7 7,0 - - 0,0
19.03.2019 14:00:00 12,7 7,1 - - 0,0
19.03.2019 13:00:00 12,4 7,1 - - 0,0
19.03.2019 12:00:00 12,2 7,5 - - 0,0
19.03.2019 11:00:00 11,3 8,0 - - 0,0
19.03.2019 10:00:00 9,9 7,5 - - 0,0
19.03.2019 09:00:00 8,6 7,4 8,7 9,0 0,0
19.03.2019 08:00:00 7,6 7,0 - - 0,2
19.03.2019 07:00:00 7,3 6,7 - - 0,4
19.03.2019 06:00:00 7,2 6,3 - - 0,2

tt = temperature
td = dewpoint
tt -20cm = temperature -20cm
tt -100cm = temperature -100cm
rr = precipitation

Next stations